This is the latest recevied weather packets stored in our database for station/object OE3PDB-4. If no packets are shown the sender has not sent any weather packets the latest 10 day(s).
| Time | Temp. | Humidity | Pressure | Rain* | Wind** | Luminosity | Snow |
|---|---|---|---|---|---|---|---|
| 1777497012 | 8.89° C | 31% | 1027.6 hPa | 0 mm | - | - | - |
| 1777496412 | 9.44° C | 30% | 1027.5 hPa | 0 mm | - | - | - |
| 1777495812 | 9.44° C | 30% | 1027.2 hPa | 0 mm | - | - | - |
| 1777495212 | 9.44° C | 30% | 1027.2 hPa | 0 mm | - | - | - |
| 1777494612 | 9.44° C | 30% | 1027 hPa | 0 mm | - | - | - |
| 1777494012 | 10° C | 29% | 1026.9 hPa | 0 mm | - | - | - |
| 1777493412 | 10° C | 29% | 1026.7 hPa | 0 mm | - | - | - |
| 1777492812 | 10° C | 29% | 1026.7 hPa | 0 mm | - | - | - |
| 1777492212 | 10.56° C | 28% | 1026.5 hPa | 0 mm | - | - | - |
| 1777491613 | 10.56° C | 28% | 1026.2 hPa | 0 mm | - | - | - |
| 1777491012 | 10.56° C | 30% | 1026.1 hPa | 0 mm | - | - | - |
| 1777490412 | 11.11° C | 28% | 1025.9 hPa | 0 mm | - | - | - |
| 1777489813 | 11.11° C | 27% | 1025.7 hPa | 0 mm | - | - | - |
| 1777489212 | 11.67° C | 27% | 1025.6 hPa | 0 mm | - | - | - |
| 1777488613 | 12.22° C | 27% | 1025.3 hPa | 0 mm | - | - | - |
| 1777488013 | 13.33° C | 29% | 1025 hPa | 0 mm | - | - | - |
| 1777487413 | 14.44° C | 29% | 1025 hPa | 0 mm | - | - | - |
| 1777486813 | 14.44° C | 31% | 1024.7 hPa | 0 mm | - | - | - |
| 1777486213 | 13.33° C | 30% | 1024.4 hPa | 0 mm | - | - | - |
| 1777485613 | 13.89° C | 29% | 1024.2 hPa | 0 mm | - | - | - |
| 1777485013 | 14.44° C | 33% | 1024 hPa | 0 mm | - | - | - |
| 1777484413 | 14.44° C | 34% | 1023.8 hPa | 0 mm | - | - | - |
| 1777483813 | 13.33° C | 36% | 1023.6 hPa | 0 mm | - | - | - |
| 1777483213 | 13.33° C | 31% | 1023.3 hPa | 0 mm | - | - | - |
| 1777482613 | 13.89° C | 31% | 1023.1 hPa | 0 mm | - | - | - |
* Rain latest hour (hover to see other rain measurements)
** Current wind speed in m/s (hover to see current wind gust speed)